Wetterdaten am Flugplatz MSG Übersee

alte Datensätze gelöscht
59 aktuelle Wetterdateneinträge gefunden

Datum/Uhrzeit   Windrichtung/Grad    Geschw./kmh    Temp./C°    Luftdruck/mbar    Spannung/Volt   
2026-05-08 00:09 O/95 1 12 1020 12,32
2026-05-08 00:19 O/95 1 12 1020 12,24
2026-05-08 00:29 O/95 0 12 1020 12,27
2026-05-08 00:39 O/95 0 12 1020 12,24
2026-05-08 00:49 O/95 0 11 1019 12,29
2026-05-08 00:59 O/95 0 11 1019 12,24
2026-05-08 01:09 O/95 1 11 1019 12,27
2026-05-08 01:19 O/95 1 11 1019 12,23
2026-05-08 01:29 O/95 1 11 1019 12,23
2026-05-08 01:39 O/95 1 11 1019 12,23
2026-05-08 01:49 O/95 1 11 1019 12,23
2026-05-08 02:00 O/95 2 11 1019 12,23
2026-05-08 02:10 O/95 2 11 1019 12,23
2026-05-08 02:20 O/95 1 11 1019 12,23
2026-05-08 02:30 O/95 0 11 1019 12,23
2026-05-08 02:40 O/95 1 11 1019 12,21
2026-05-08 02:50 O/95 1 11 1019 12,23
2026-05-08 03:00 O/95 1 10 1019 12,24
2026-05-08 03:10 O/95 2 10 1018 12,21
2026-05-08 03:20 O/95 3 10 1019 12,21
2026-05-08 03:30 SO/150 2 10 1018 12,21
2026-05-08 03:40 S/176 3 10 1018 12,21
2026-05-08 03:50 S/185 13 10 1018 12,20
2026-05-08 04:00 S/194 17 10 1018 12,21
2026-05-08 04:10 S/193 16 10 1018 12,20
2026-05-08 04:20 S/195 20 10 1018 12,18
2026-05-08 04:30 S/193 20 10 1018 12,20
2026-05-08 04:40 S/161 9 10 1018 12,17
2026-05-08 04:51 SO/125 4 9 1018 12,18
2026-05-08 05:01 S/177 14 9 1018 12,18
2026-05-08 05:11 S/200 14 9 1018 12,18
2026-05-08 05:21 SW/232 9 9 1018 12,18
2026-05-08 05:31 SW/230 5 9 1018 12,17
2026-05-08 05:41 S/167 4 9 1018 12,17
2026-05-08 05:51 SO/146 2 9 1018 12,16
2026-05-08 06:01 SO/143 3 9 1018 12,17
2026-05-08 06:11 SO/117 4 9 1019 12,20
2026-05-08 06:21 N/21 5 9 1019 12,20
2026-05-08 06:31 N/15 4 9 1019 12,18
2026-05-08 06:41 N/15 2 9 1019 11,94
2026-05-08 06:51 N/14 1 9 1019 12,18
2026-05-08 07:01 N/14 1 9 1019 12,20
2026-05-08 07:12 N/14 1 10 1019 12,20
2026-05-08 07:22 N/14 3 11 1019 12,21
2026-05-08 07:32 N/14 4 11 1019 12,23
2026-05-08 07:42 N/14 2 12 1019 12,26
2026-05-08 07:52 N/14 1 13 1019 12,26
2026-05-08 08:02 N/14 3 14 1019 12,32
2026-05-08 08:12 N/15 3 15 1019 12,32
2026-05-08 08:22 N/14 4 16 1019 12,46
2026-05-08 08:32 NO/30 3 16 1020 12,48
2026-05-08 08:42 N/15 5 17 1020 12,38
2026-05-08 08:52 NO/32 4 18 1020 12,46
2026-05-08 09:02 N/348 9 19 1020 12,57
2026-05-08 09:12 N/345 11 19 1020 12,61
2026-05-08 09:22 NW/330 7 19 1020 12,62
2026-05-08 09:32 N/11 7 19 1020 12,70
2026-05-08 09:43 NO/26 6 19 1020 12,76
2026-05-08 09:53 N/22 12 19 1020 12,82